Location: Olda
(45.8833°N, 9.5500°E)
Time: 06:13:29
(UTC+00:00)

SL-4 R/B - Pass Details

Date: 03 March 2021
Orbit: 428 x 663 km, 51.6° (Epoch: 10 April)

Event Time Altitude Azimuth Distance (km) Brightness Sun altitude
Rises 18:11:39 0° 292° (WNW) 2,501 6.9 -11.3°
Reaches altitude 10° 18:13:59 10° 302° (WNW) 1,592 5.4 -11.7°
Maximum altitude 18:17:16 34° 9° (N) 748 2.6 -12.3°
Enters shadow 18:19:14 19° 65° (ENE) 1,118 3.1 -12.6°
